TimeEDT,TemperatureF,Dew PointF,Humidity,Sea Level PressureIn,VisibilityMPH,Wind Direction,Wind SpeedMPH,Gust SpeedMPH,PrecipitationIn,Events,Conditions,WindDirDegrees,DateUTC
12:15 AM,42.8,19.4,39,30.07,10.0,NW,13.8,24.2,N/A,,Scattered Clouds,320,2013-03-14 04:15:00
12:35 AM,41.0,17.6,39,30.07,10.0,NNW,15.0,24.2,N/A,,Clear,340,2013-03-14 04:35:00
12:55 AM,39.2,17.6,42,30.08,10.0,NW,12.7,16.1,N/A,,Clear,320,2013-03-14 04:55:00
1:15 AM,39.2,19.4,45,30.08,10.0,NW,8.1,-,N/A,,Clear,320,2013-03-14 05:15:00
1:35 AM,39.2,19.4,45,30.09,10.0,NW,8.1,-,N/A,,Clear,320,2013-03-14 05:35:00
1:55 AM,37.4,19.4,48,30.10,10.0,NNW,9.2,-,N/A,,Clear,330,2013-03-14 05:55:00
2:15 AM,37.4,19.4,48,30.10,10.0,NW,9.2,-,N/A,,Clear,320,2013-03-14 06:15:00
2:55 AM,35.6,19.4,52,30.11,10.0,NNW,6.9,-,N/A,,Clear,330,2013-03-14 06:55:00
3:15 AM,35.6,19.4,52,30.11,10.0,NNW,6.9,-,N/A,,Clear,330,2013-03-14 07:15:00
3:35 AM,35.6,19.4,52,30.11,10.0,NW,5.8,-,N/A,,Clear,320,2013-03-14 07:35:00
3:55 AM,35.6,19.4,52,30.11,10.0,NW,6.9,-,N/A,,Clear,310,2013-03-14 07:55:00
4:15 AM,33.8,19.4,56,30.11,10.0,NW,5.8,-,N/A,,Clear,310,2013-03-14 08:15:00
4:35 AM,33.8,19.4,56,30.11,10.0,NW,6.9,-,N/A,,Clear,310,2013-03-14 08:35:00
4:55 AM,33.8,19.4,56,30.11,10.0,NW,4.6,-,N/A,,Clear,310,2013-03-14 08:55:00
5:15 AM,32.0,19.4,60,30.12,10.0,NW,4.6,-,N/A,,Clear,310,2013-03-14 09:15:00
5:35 AM,33.8,21.2,60,30.12,10.0,WNW,4.6,-,N/A,,Scattered Clouds,300,2013-03-14 09:35:00
5:55 AM,33.8,21.2,60,30.13,10.0,WNW,3.5,-,N/A,,Mostly Cloudy,290,2013-03-14 09:55:00
6:15 AM,33.8,21.2,60,30.14,10.0,NW,4.6,-,N/A,,Overcast,310,2013-03-14 10:15:00
6:35 AM,32.0,21.2,64,30.14,10.0,Calm,Calm,-,N/A,,Mostly Cloudy,0,2013-03-14 10:35:00
6:55 AM,30.2,21.2,69,30.15,10.0,NW,4.6,-,N/A,,Scattered Clouds,310,2013-03-14 10:55:00
7:15 AM,32.0,21.2,64,30.15,10.0,NW,4.6,-,N/A,,Clear,310,2013-03-14 11:15:00
7:35 AM,32.0,21.2,64,30.16,10.0,NW,5.8,-,N/A,,Clear,310,2013-03-14 11:35:00
7:55 AM,32.0,19.4,60,30.16,10.0,NW,6.9,-,N/A,,Clear,310,2013-03-14 11:55:00
8:15 AM,33.8,19.4,56,30.17,10.0,WNW,6.9,-,N/A,,Clear,300,2013-03-14 12:15:00
8:35 AM,33.8,21.2,60,30.18,10.0,WNW,5.8,-,N/A,,Clear,300,2013-03-14 12:35:00
8:55 AM,35.6,21.2,56,30.18,10.0,WNW,9.2,-,N/A,,Clear,290,2013-03-14 12:55:00
9:15 AM,37.4,19.4,48,30.18,10.0,NW,8.1,-,N/A,,Clear,320,2013-03-14 13:15:00
9:35 AM,39.2,19.4,45,30.18,10.0,NW,10.4,-,N/A,,Clear,320,2013-03-14 13:35:00
9:55 AM,39.2,19.4,45,30.18,10.0,NW,11.5,-,N/A,,Clear,310,2013-03-14 13:55:00
10:15 AM,39.2,19.4,45,30.18,10.0,NW,12.7,19.6,N/A,,Clear,310,2013-03-14 14:15:00
10:35 AM,41.0,17.6,39,30.17,10.0,WNW,9.2,17.3,N/A,,Clear,300,2013-03-14 14:35:00
10:55 AM,42.8,19.4,39,30.17,10.0,WNW,10.4,-,N/A,,Clear,300,2013-03-14 14:55:00
11:15 AM,42.8,17.6,36,30.17,10.0,West,10.4,17.3,N/A,,Clear,270,2013-03-14 15:15:00
11:35 AM,44.6,19.4,37,30.17,10.0,WNW,12.7,19.6,N/A,,Clear,290,2013-03-14 15:35:00
11:55 AM,44.6,17.6,34,30.16,10.0,West,13.8,19.6,N/A,,Clear,280,2013-03-14 15:55:00
12:15 PM,44.6,19.4,37,30.15,10.0,WNW,12.7,24.2,N/A,,Clear,300,2013-03-14 16:15:00
12:35 PM,46.4,19.4,34,30.15,10.0,West,15.0,23.0,N/A,,Clear,280,2013-03-14 16:35:00
12:55 PM,46.4,19.4,34,30.14,10.0,WNW,10.4,24.2,N/A,,Clear,300,2013-03-14 16:55:00
1:15 PM,46.4,19.4,34,30.13,10.0,WNW,11.5,17.3,N/A,,Clear,300,2013-03-14 17:15:00
1:35 PM,48.2,19.4,32,30.12,10.0,NNW,10.4,24.2,N/A,,Clear,330,2013-03-14 17:35:00
1:55 PM,48.2,19.4,32,30.11,10.0,WNW,17.3,26.5,N/A,,Clear,290,2013-03-14 17:55:00
2:15 PM,48.2,19.4,32,30.10,10.0,NW,18.4,25.3,N/A,,Clear,310,2013-03-14 18:15:00
2:35 PM,50.0,19.4,30,30.09,10.0,NNW,13.8,23.0,N/A,,Clear,330,2013-03-14 18:35:00
2:55 PM,51.8,19.4,28,30.07,10.0,WNW,19.6,27.6,N/A,,Clear,300,2013-03-14 18:55:00
3:15 PM,51.8,19.4,28,30.07,10.0,NNW,17.3,26.5,N/A,,Clear,330,2013-03-14 19:15:00
3:35 PM,51.8,19.4,28,30.06,10.0,WNW,17.3,21.9,N/A,,Clear,300,2013-03-14 19:35:00
3:55 PM,51.8,19.4,28,30.06,10.0,West,13.8,23.0,N/A,,Clear,270,2013-03-14 19:55:00
4:15 PM,53.6,19.4,26,30.06,10.0,WNW,17.3,23.0,N/A,,Clear,290,2013-03-14 20:15:00
4:35 PM,51.8,17.6,26,30.06,10.0,WNW,13.8,24.2,N/A,,Clear,290,2013-03-14 20:35:00
4:55 PM,53.6,19.4,26,30.06,10.0,WNW,15.0,23.0,N/A,,Clear,290,2013-03-14 20:55:00
5:15 PM,51.8,17.6,26,30.05,10.0,WNW,17.3,26.5,N/A,,Clear,300,2013-03-14 21:15:00
5:35 PM,51.8,17.6,26,30.05,10.0,WNW,18.4,25.3,N/A,,Clear,290,2013-03-14 21:35:00
5:55 PM,51.8,17.6,26,30.05,10.0,WNW,16.1,21.9,N/A,,Clear,300,2013-03-14 21:55:00
6:15 PM,51.8,17.6,26,30.05,10.0,NW,15.0,26.5,N/A,,Clear,310,2013-03-14 22:15:00
6:35 PM,51.8,17.6,26,30.06,10.0,WNW,13.8,24.2,N/A,,Clear,300,2013-03-14 22:35:00
6:55 PM,50.0,17.6,28,30.06,10.0,NW,8.1,-,N/A,,Clear,310,2013-03-14 22:55:00
7:15 PM,48.2,19.4,32,30.06,10.0,WNW,6.9,-,N/A,,Clear,290,2013-03-14 23:15:00
7:35 PM,46.4,21.2,37,30.07,10.0,WNW,4.6,-,N/A,,Clear,290,2013-03-14 23:35:00
7:55 PM,44.6,21.2,39,30.07,10.0,WNW,5.8,-,N/A,,Clear,300,2013-03-14 23:55:00
8:15 PM,42.8,21.2,42,30.08,10.0,NW,3.5,-,N/A,,Clear,310,2013-03-15 00:15:00
8:35 PM,41.0,21.2,45,30.08,10.0,NW,3.5,-,N/A,,Clear,310,2013-03-15 00:35:00
8:55 PM,39.2,26.6,61,30.09,10.0,NNW,5.8,-,N/A,,Clear,330,2013-03-15 00:55:00
9:15 PM,39.2,23.0,52,30.10,10.0,NNW,4.6,-,N/A,,Clear,330,2013-03-15 01:15:00
9:35 PM,37.4,24.8,60,30.10,10.0,NW,4.6,-,N/A,,Clear,320,2013-03-15 01:35:00
9:55 PM,39.2,24.8,56,30.11,10.0,NNW,5.8,-,N/A,,Clear,330,2013-03-15 01:55:00
10:15 PM,37.4,21.2,52,30.11,10.0,NNW,5.8,-,N/A,,Clear,340,2013-03-15 02:15:00
10:35 PM,41.0,19.4,42,30.11,10.0,NNW,8.1,-,N/A,,Clear,340,2013-03-15 02:35:00
10:55 PM,39.2,19.4,45,30.11,10.0,North,5.8,-,N/A,,Clear,350,2013-03-15 02:55:00
11:15 PM,39.2,19.4,45,30.11,10.0,NNW,3.5,-,N/A,,Clear,330,2013-03-15 03:15:00
11:35 PM,37.4,21.2,52,30.11,10.0,NNW,3.5,-,N/A,,Clear,340,2013-03-15 03:35:00
11:55 PM,35.6,24.8,65,30.12,10.0,Calm,Calm,-,N/A,,Clear,0,2013-03-15 03:55:00